Regional Weather Roundup
Issued by NWS Cleveland, OH

Home | Current Version | Previous Version | Graphics & Text | Print | Product List | Glossary On
Versions: 1 2 3 4 5 6 7 8 9 10 11 12 13 14 15 16 17 18 19 20 21 22 23 24 25 26 27 28 29 30 31 32 33 34 35 36 37 38 39 40 41 42 43 44 45 46 47 48 49 50
000
ASUS41 KCLE 181700
RWRCLE
OHIO REGIONAL WEATHER ROUNDUP
NATIONAL WEATHER SERVICE WILMINGTON, OH
100 PM EDT THU SEP 18 2014

NOTE: "FAIR" INDICATES FEW OR NO CLOUDS BELOW 12,000 FEET WITH NO
SIGNIFICANT WEATHER AND/OR OBSTRUCTIONS TO VISIBILITY.

OHZ001>008-015>018-024>027-034-035-043-044-181800-
   NORTHWEST OHIO

CITY           SKY/WX    TMP DP  RH WIND       PRES   REMARKS
DEFIANCE       SUNNY     68  47  46 N3        30.14F
FINDLAY        MOSUNNY   70  47  43 NE5       30.13S
TOLEDO EXPRESS SUNNY     68  48  48 W5        30.14S
TOLEDO METCALF MOSUNNY   69  50  50 N7        30.15R
LIMA           SUNNY     69  48  47 E7        30.13F
$$

OHZ009>014-019>023-028>033-038-089-181800-
   NORTHEAST OHIO

CITY           SKY/WX    TMP DP  RH WIND       PRES   REMARKS
CLE-HOPKINS    PTSUNNY   67  53  61 N9        30.14R
CLE-LAKEFRONT  SUNNY     66  57  72 NE9       30.12R
CUY CO. ARPT   MOSUNNY   66  55  68 N12       30.13R
LORAIN-ELYRIA  MOSUNNY   71  51  49 N8        30.14R
ASHTABULA      MOSUNNY   66  51  58 VRB3      30.11S
AKRON-CANTON   MOSUNNY   67  46  47 NE8       30.11S
WOOSTER        NOT AVBL
MANSFIELD      MOSUNNY   67  45  45 VRB3      30.13R
YOUNGSTOWN     PTSUNNY   66  50  56 NW6       30.11R
$$

OHZ042-051>053-060>062-070>072-077>081-181800-
  SOUTHWEST OHIO

CITY           SKY/WX    TMP DP  RH WIND       PRES   REMARKS
CINC-COVINGTON MOSUNNY   70  47  43 NE9G24    30.09F
CINC-LUNKEN    SUNNY     70  48  45 NE8G17    30.09F
HAMILTON       SUNNY     70  49  47 E8G21     30.10F
DAYTON         NOT AVBL
WRIGHT-PAT AFB NOT AVBL
DAYTON GENERAL SUNNY     68  49  50 NE8       30.10F
WILMINGTON     MOSUNNY   67  47  48 E8        30.10F
$$

OHZ036-037-039>041-045>050-054>059-063>069-073>076-082>088-181800-
  CENTRAL AND SOUTHEAST OHIO

CITY           SKY/WX    TMP DP  RH WIND       PRES   REMARKS
COLUMBUS       MOSUNNY   72  45  37 NE10      30.11S
OSU AIRPORT    MOSUNNY   69  44  40 NE9       30.11F
BOLTON FIELD   MOSUNNY   66  46  48 N10       30.12F
RICKENBACK AFB NOT AVBL
NEWARK         MOSUNNY   67  45  45 N6        30.11S
MARION         MOSUNNY   69  46  43 NE7       30.13S
LANCASTER      SUNNY     70  44  39 N9        30.11F
ZANESVILLE     MOSUNNY   69  43  38 NE7       30.12R
NEW PHILLY     SUNNY     68  45  43 NE7       30.12S
$$



USA.gov is the U.S. government's official web portal to all federal, state and local government web resources and services.